GW0206 Weather Reports


Display with metric or nautical units.
time (UTC)temp
F
wind
direction
speed
MPH
gust
MPH
rain 1hr
in
rain 24hr
in
rain mn
in
humidity
%
barometer
mb
20260507093507 38 360 0.0 0.0 0.00 0.04 0.00 92 1012.7
20260507093025 38 12 0.0 2.0 0.00 0.04 0.00 92 1012.7
20260507092503 38 12 0.0 3.0 0.00 0.05 0.00 92 1012.7
20260507092003 39 12 0.0 3.0 0.00 0.06 0.00 92 1012.7
20260507091503 39 9 0.0 3.0 0.00 0.07 0.00 92 1012.8
20260507091004 39 9 1.0 2.0 0.00 0.08 0.00 92 1012.8
20260507090503 39 9 0.0 2.0 0.00 0.09 0.00 92 1012.7
20260507090010 39 9 1.0 3.0 0.00 0.10 0.00 91 1012.8
20260507085503 39 9 0.0 3.0 0.00 0.11 0.00 91 1012.8
20260507085006 39 21 1.0 3.0 0.00 0.11 0.00 91 1012.7
20260507084510 39 22 1.0 3.0 0.00 0.12 0.00 91 1012.7
20260507084006 39 28 2.0 3.0 0.00 0.12 0.00 91 1012.7
20260507083507 39 14 1.0 3.0 0.00 0.12 0.00 91 1012.8
20260507083008 39 12 1.0 3.0 0.00 0.12 0.00 90 1012.8
20260507082504 39 14 0.0 2.0 0.00 0.12 0.00 90 1012.8
20260507082009 40 331 0.0 2.0 0.00 0.13 0.00 90 1012.8
20260507081523 40 299 0.0 2.0 0.00 0.14 0.00 90 1012.8
20260507081003 40 298 0.0 2.0 0.00 0.15 0.00 89 1012.9
20260507080507 40 298 0.0 2.0 0.00 0.16 0.00 89 1012.9
20260507080027 40 291 0.0 1.0 0.00 0.18 0.00 88 1012.9
20260507075503 40 291 0.0 1.0 0.00 0.20 0.00 88 1012.9
20260507075002 40 255 0.0 2.0 0.00 0.21 0.00 88 1012.8
20260507074511 40 243 0.0 2.0 0.00 0.24 0.00 87 1012.8
20260507074007 40 241 0.0 2.0 0.00 0.25 0.00 87 1012.9
20260507073502 40 239 0.0 1.0 0.00 0.26 0.00 87 1012.9
20260507073018 40 239 0.0 1.0 0.00 0.28 0.00 86 1013.0
20260507072507 41 239 0.0 2.0 0.00 0.29 0.00 86 1012.9
20260507072008 41 239 0.0 2.0 0.00 0.30 0.00 85 1012.9
20260507071534 41 238 0.0 2.0 0.00 0.31 0.00 85 1012.9
20260507071006 41 238 0.0 2.0 0.00 0.32 0.00 85 1012.9
20260507070509 41 235 0.0 1.0 0.00 0.33 0.00 85 1012.9
20260507070027 41 234 0.0 1.0 0.00 0.34 0.00 85 1012.9
20260507065505 41 234 0.0 2.0 0.00 0.35 0.00 85 1013.0
20260507065009 41 234 0.0 2.0 0.00 0.36 0.00 85 1013.0
20260507064527 41 234 0.0 2.0 0.00 0.37 0.00 85 1013.0
20260507064005 41 228 0.0 2.0 0.00 0.38 0.00 85 1013.1
20260507063504 41 179 0.0 2.0 0.00 0.39 0.00 85 1013.1
20260507063009 41 171 0.0 2.0 0.00 0.40 0.00 85 1013.1
20260507062511 41 171 0.0 0.0 0.00 0.41 0.00 84 1013.2
20260507062007 41 171 0.0 0.0 0.00 0.42 0.00 84 1013.3
20260507061518 42 171 0.0 2.0 0.00 0.42 0.00 84 1013.4
20260507061006 42 171 0.0 2.0 0.00 0.44 0.00 84 1013.3
20260507060508 42 171 0.0 2.0 0.00 0.46 0.00 84 1013.4
20260507060015 42 171 0.0 1.0 0.00 0.47 0.00 84 1013.5
20260507055509 42 171 0.0 0.0 0.00 0.48 0.00 84 1013.6
20260507055014 42 171 0.0 0.0 0.00 0.49 0.00 84 1013.6
20260507054513 42 171 0.0 0.0 0.00 0.50 0.00 83 1013.7
20260507054009 42 171 0.0 0.0 0.00 0.51 0.00 83 1013.6
20260507053508 43 171 0.0 1.0 0.00 0.52 0.00 83 1013.6
20260507053042 43 171 0.0 1.0 0.00 0.52 0.00 83 1013.6
20260507052509 43 171 0.0 1.0 0.00 0.52 0.00 82 1013.7
20260507052008 43 171 0.0 1.0 0.00 0.54 0.00 82 1013.7
20260507051538 44 171 0.0 2.0 0.00 0.55 0.00 81 1013.8
20260507051007 44 171 0.0 2.0 0.00 0.56 0.00 80 1013.7
20260507050507 44 171 0.0 1.0 0.00 0.57 0.00 80 1013.8
20260507050021 44 171 0.0 1.0 0.00 0.57 0.00 80 1013.7
20260507045509 44 171 0.0 0.0 0.00 0.58 0.00 80 1013.8
20260507045007 44 171 0.0 0.0 0.00 0.58 0.00 79 1013.8
20260507044527 44 171 0.0 0.0 0.00 0.58 0.00 79 1013.7
20260507044008 44 171 0.0 0.0 0.00 0.58 0.00 79 1013.7
20260507043512 44 171 0.0 0.0 0.00 0.60 0.00 78 1013.7
20260507043018 44 171 0.0 1.0 0.00 0.61 0.00 78 1013.8
20260507042509 44 171 0.0 1.0 0.00 0.62 0.00 78 1013.8
20260507042012 44 171 0.0 1.0 0.00 0.63 0.00 78 1013.9
20260507041530 44 171 0.0 1.0 0.00 0.63 0.00 79 1014.0
20260507041007 44 171 0.0 1.0 0.00 0.64 0.00 78 1014.0
20260507040512 44 171 0.0 0.0 0.00 0.65 0.00 77 1014.1
20260507040030 44 171 0.0 0.0 0.00 0.67 0.00 76 1014.1
20260507035510 44 171 0.0 0.0 0.00 0.68 0.67 76 1014.1
20260507035005 45 171 0.0 0.0 0.00 0.68 0.67 75 1014.2
20260507034532 45 171 0.0 0.0 0.00 0.69 0.67 75 1014.2
20260507034001 45 171 0.0 0.0 0.00 0.70 0.67 74 1014.3
20260507033501 45 171 0.0 0.0 0.00 0.70 0.67 73 1014.3
20260507033010 45 171 0.0 1.0 0.00 0.71 0.67 73 1014.3
20260507032503 46 171 0.0 1.0 0.00 0.72 0.67 72 1014.3
20260507032002 46 171 0.0 0.0 0.00 0.72 0.67 72 1014.3
20260507031503 46 171 0.0 0.0 0.00 0.73 0.67 72 1014.2
20260507031003 46 171 0.0 0.0 0.00 0.73 0.67 73 1014.1
20260507030503 46 171 0.0 0.0 0.00 0.73 0.67 73 1014.1
20260507030003 46 171 0.0 0.0 0.00 0.74 0.67 73 1014.1
20260507025503 46 171 0.0 0.0 0.00 0.74 0.67 71 1014.1
20260507025002 47 171 0.0 0.0 0.00 0.75 0.67 72 1014.0
20260507024503 47 171 0.0 0.0 0.00 0.75 0.67 70 1014.1
20260507024006 47 171 0.0 0.0 0.00 0.78 0.67 71 1014.1
20260507023503 47 171 0.0 0.0 0.00 0.78 0.67 70 1014.0
20260507023006 47 171 0.0 0.0 0.00 0.79 0.67 69 1014.0
20260507022503 47 171 0.0 1.0 0.00 0.80 0.67 70 1014.1
20260507022003 47 171 0.0 2.0 0.00 0.82 0.67 69 1014.1
20260507021504 47 171 0.0 2.0 0.00 0.85 0.67 69 1014.1
20260507021002 47 171 0.0 4.0 0.00 0.89 0.67 68 1014.0
20260507020502 47 171 0.0 4.0 0.00 0.92 0.67 70 1014.0
20260507020006 47 171 0.0 4.0 0.00 0.93 0.67 70 1013.9
20260507015506 48 197 0.0 4.0 0.00 0.94 0.67 70 1013.8
20260507015005 48 165 2.0 4.0 0.00 0.94 0.67 69 1013.7
20260507014507 48 177 1.0 5.0 0.00 0.95 0.67 68 1013.7
20260507014003 48 167 1.0 5.0 0.00 0.95 0.67 69 1013.6
20260507013502 48 194 1.0 6.0 0.00 0.96 0.67 70 1013.5
20260507013003 48 213 1.0 6.0 0.00 0.96 0.67 69 1013.5
20260507012503 48 186 1.0 4.0 0.00 0.96 0.67 71 1013.4
20260507012003 48 196 1.0 5.0 0.00 0.97 0.67 69 1013.3
20260507011505 48 192 2.0 5.0 0.00 0.97 0.67 68 1013.2
20260507011002 48 190 1.0 6.0 0.00 0.97 0.67 69 1013.2
20260507010503 48 198 1.0 6.0 0.00 0.97 0.67 69 1013.1
20260507010013 48 196 1.0 7.0 0.00 0.97 0.67 69 1013.2
20260507005503 48 173 1.0 7.0 0.00 0.98 0.67 66 1013.2
20260507005003 49 186 3.0 7.0 0.00 0.98 0.67 66 1013.2
20260507004508 49 198 3.0 7.0 0.00 0.98 0.67 67 1013.2
20260507004007 49 193 2.0 7.0 0.00 0.98 0.67 67 1013.1
20260507003503 49 180 2.0 7.0 0.00 0.98 0.67 66 1013.1
20260507003006 49 196 3.0 7.0 0.00 0.99 0.67 66 1013.0
20260507002503 50 191 3.0 7.0 0.00 0.99 0.67 68 1012.9
20260507002010 50 196 2.0 6.0 0.00 0.99 0.67 67 1012.9
20260507001502 50 206 4.0 8.0 0.00 1.00 0.67 67 1012.9
20260507001003 50 161 3.0 8.0 0.00 1.00 0.67 66 1012.9
20260507000503 51 204 4.0 8.0 0.00 1.00 0.67 65 1012.9
20260507000007 51 159 0.0 1.0 0.00 1.00 0.67 64 1012.8
20260506235505 51 159 0.0 0.0 0.00 1.01 0.67 65 1012.8
20260506235003 51 159 0.0 0.0 0.00 1.02 0.67 65 1012.9
20260506234509 51 159 0.0 0.0 0.00 1.02 0.67 65 1012.9
20260506234001 51 159 0.0 0.0 0.00 1.04 0.67 65 1012.9
20260506233502 51 159 0.0 2.0 0.00 1.05 0.67 63 1013.0
20260506233012 51 159 0.0 2.0 0.00 1.07 0.67 64 1012.9
20260506232506 51 159 0.0 2.0 0.00 1.10 0.67 62 1012.8
20260506232002 51 159 0.0 4.0 0.00 1.15 0.67 63 1012.9
20260506231509 52 159 0.0 4.0 0.00 1.20 0.67 61 1012.8
20260506231007 52 159 0.0 4.0 0.00 1.21 0.67 63 1012.8
20260506230507 52 160 0.0 3.0 0.00 1.21 0.67 63 1012.8
20260506230007 52 157 0.0 3.0 0.00 1.21 0.67 61 1012.8
20260506225507 52 157 0.0 6.0 0.00 1.22 0.67 61 1012.8
20260506225002 52 174 2.0 6.0 0.00 1.22 0.67 59 1012.9
20260506224507 52 155 0.0 3.0 0.00 1.22 0.67 62 1012.8
20260506224004 53 168 0.0 6.0 0.00 1.22 0.67 62 1012.8
20260506223501 53 142 1.0 6.0 0.00 1.22 0.67 59 1012.6
20260506223010 53 167 0.0 6.0 0.00 1.22 0.67 59 1012.5
20260506222506 53 182 0.0 7.0 0.00 1.22 0.67 58 1012.4
20260506222008 53 173 2.0 7.0 0.00 1.22 0.67 56 1012.4
20260506221517 54 149 1.0 5.0 0.00 1.22 0.67 59 1012.3
20260506221006 54 170 1.0 8.0 0.00 1.22 0.67 56 1012.3
20260506220502 54 168 1.0 8.0 0.00 1.22 0.67 57 1012.3
20260506220030 54 155 2.0 7.0 0.00 1.22 0.67 57 1012.2
20260506215507 53 131 1.0 6.0 0.00 1.22 0.67 57 1012.2
20260506215002 54 128 0.0 5.0 0.00 1.22 0.67 59 1012.2
20260506214512 54 120 1.0 6.0 0.00 1.22 0.67 57 1012.2
20260506214006 54 158 2.0 7.0 0.00 1.22 0.67 55 1012.2
20260506213506 54 81 1.0 9.0 0.00 1.22 0.67 56 1012.0
20260506213006 54 113 2.0 9.0 0.00 1.22 0.67 59 1012.0
20260506212503 54 154 2.0 9.0 0.00 1.22 0.67 57 1011.9
20260506212003 54 126 3.0 9.0 0.00 1.22 0.67 58 1011.9
20260506211510 54 170 2.0 6.0 0.00 1.22 0.67 57 1011.9
20260506211003 54 178 0.0 6.0 0.00 1.22 0.67 58 1011.9
20260506210506 54 184 1.0 6.0 0.00 1.22 0.67 60 1011.8
20260506210016 53 153 1.0 8.0 0.00 1.22 0.67 57 1011.8
20260506205504 53 180 2.0 8.0 0.00 1.22 0.67 59 1011.8
20260506205008 53 163 2.0 8.0 0.00 1.22 0.67 56 1011.8
20260506204522 53 153 1.0 7.0 0.00 1.22 0.67 59 1011.8
20260506204005 53 163 2.0 8.0 0.00 1.22 0.67 57 1011.8
20260506203502 53 169 1.0 8.0 0.00 1.22 0.67 56 1011.8
20260506203021 53 179 2.0 10.0 0.00 1.22 0.67 57 1011.8
20260506202506 54 194 2.0 10.0 0.00 1.22 0.67 57 1011.8
20260506202019 54 149 2.0 9.0 0.00 1.22 0.67 56 1011.8
20260506201515 54 182 0.0 7.0 0.00 1.23 0.67 58 1011.9
20260506201004 54 138 1.0 10.0 0.00 1.23 0.67 57 1011.9
20260506200503 55 167 3.0 10.0 0.00 1.24 0.67 54 1012.0
20260506200019 55 140 3.0 9.0 0.00 1.24 0.67 53 1011.9
20260506195506 55 147 2.0 11.0 0.00 1.24 0.67 56 1011.8
20260506195006 55 172 4.0 11.0 0.00 1.24 0.67 52 1011.6
20260506194519 55 174 5.0 11.0 0.00 1.24 0.67 53 1011.4
20260506194005 55 214 2.0 8.0 0.00 1.24 0.67 56 1011.6
20260506193509 55 187 4.0 8.0 0.00 1.24 0.67 53 1011.7
20260506193024 56 173 4.0 9.0 0.00 1.24 0.67 54 1011.8
20260506192507 56 164 4.0 10.0 0.00 1.24 0.67 56 1011.8
20260506192007 56 142 3.0 11.0 0.00 1.24 0.67 55 1012.0
20260506191522 57 163 3.0 11.0 0.00 1.24 0.67 53 1011.9
20260506191010 57 115 3.0 10.0 0.00 1.24 0.67 55 1011.8
20260506190504 57 134 2.0 10.0 0.00 1.24 0.67 57 1011.8
20260506190025 57 152 2.0 9.0 0.00 1.24 0.67 58 1011.7
20260506185504 57 187 2.0 9.0 0.00 1.24 0.67 57 1011.7
20260506185003 57 89 2.0 9.0 0.00 1.24 0.67 57 1011.7
20260506184518 57 122 3.0 11.0 0.00 1.24 0.67 57 1011.7
20260506184004 57 172 1.0 11.0 0.00 1.24 0.67 58 1011.8
20260506183502 57 215 5.0 11.0 0.00 1.24 0.67 55 1011.7
20260506183005 57 159 3.0 11.0 0.00 1.24 0.67 61 1011.8
20260506182501 57 109 3.0 11.0 0.00 1.24 0.67 60 1011.9
20260506182003 56 114 3.0 8.0 0.00 1.24 0.67 61 1011.7
20260506181507 56 161 2.0 8.0 0.00 1.24 0.67 63 1011.5
20260506181002 55 130 2.0 8.0 0.00 1.24 0.67 62 1011.6
20260506180503 56 167 2.0 9.0 0.00 1.24 0.67 61 1011.6
20260506180009 56 146 3.0 9.0 0.00 1.24 0.67 64 1011.4
20260506175508 56 137 3.0 9.0 0.00 1.24 0.67 60 1011.4
20260506175008 56 180 2.0 6.0 0.00 1.24 0.67 63 1011.5
20260506174504 55 159 1.0 11.0 0.00 1.24 0.67 70 1011.5
20260506174006 55 159 3.0 11.0 0.00 1.24 0.67 70 1011.6
20260506173503 55 165 2.0 8.0 0.00 1.24 0.67 68 1011.5
20260506173004 56 156 2.0 10.0 0.00 1.24 0.67 68 1011.6
20260506172501 56 184 4.0 10.0 0.00 1.24 0.67 68 1011.6
20260506172002 56 155 1.0 6.0 0.00 1.24 0.67 72 1011.7
20260506171503 55 155 1.0 6.0 0.00 1.24 0.67 73 1011.6
20260506171003 55 161 2.0 11.0 0.00 1.24 0.67 67 1011.5
20260506170505 55 132 2.0 11.0 0.00 1.24 0.67 67 1011.5
20260506170009 56 114 2.0 8.0 0.00 1.24 0.67 65 1011.4
20260506165506 56 144 3.0 8.0 0.00 1.24 0.67 68 1011.3
20260506165003 55 142 2.0 7.0 0.00 1.24 0.67 71 1011.5
20260506164510 56 205 3.0 9.0 0.00 1.24 0.67 70 1011.4
20260506164002 55 107 1.0 9.0 0.00 1.24 0.67 74 1011.6
20260506163503 55 170 1.0 11.0 0.00 1.24 0.67 72 1011.6
20260506163009 55 138 4.0 11.0 0.00 1.24 0.67 72 1011.4
20260506162504 55 167 4.0 10.0 0.00 1.24 0.67 72 1011.3
20260506162006 55 142 3.0 9.0 0.00 1.24 0.67 74 1011.2
20260506161504 55 155 3.0 9.0 0.00 1.24 0.67 76 1011.2
20260506161004 54 169 2.0 9.0 0.00 1.24 0.67 75 1011.1
20260506160508 54 124 1.0 8.0 0.00 1.24 0.67 79 1011.0
20260506160006 53 151 1.0 8.0 0.00 1.24 0.67 80 1011.0
20260506155502 53 163 0.0 11.0 0.00 1.24 0.67 79 1011.2
20260506155003 53 174 4.0 11.0 0.00 1.24 0.67 75 1011.2
20260506154508 53 129 4.0 9.0 0.00 1.24 0.67 78 1011.2
20260506154004 52 190 2.0 9.0 0.00 1.24 0.67 78 1011.1
20260506153503 52 183 1.0 9.0 0.00 1.24 0.67 79 1010.9
20260506153012 51 194 4.0 9.0 0.00 1.24 0.67 82 1010.9
20260506152506 51 216 3.0 10.0 0.00 1.24 0.67 83 1010.7
20260506152004 50 204 3.0 10.0 0.00 1.24 0.67 84 1010.7
20260506151514 50 140 2.0 7.0 0.00 1.24 0.67 84 1010.8
20260506151005 49 179 1.0 8.0 0.00 1.24 0.67 86 1010.8
20260506150504 49 122 2.0 10.0 0.00 1.24 0.67 87 1010.8
20260506150013 49 172 3.0 10.0 0.00 1.24 0.67 87 1010.8
20260506145504 49 159 2.0 7.0 0.00 1.24 0.67 89 1010.7
20260506145006 48 167 1.0 7.0 0.00 1.24 0.67 90 1010.7
20260506144512 48 189 4.0 13.0 0.00 1.24 0.67 90 1010.6
20260506144002 48 174 5.0 13.0 0.00 1.24 0.67 90 1010.6
20260506143502 48 147 2.0 11.0 0.00 1.24 0.67 92 1010.4
20260506143011 47 118 1.0 11.0 0.00 1.24 0.67 92 1010.2
20260506142503 47 161 2.0 7.0 0.00 1.24 0.67 94 1010.3
20260506142005 47 157 3.0 7.0 0.00 1.24 0.67 94 1010.2
20260506141515 47 142 2.0 6.0 0.00 1.24 0.67 95 1010.2
20260506141011 47 164 2.0 8.0 0.00 1.24 0.67 95 1010.2
20260506140505 46 207 4.0 8.0 0.00 1.24 0.67 95 1010.0
20260506140016 46 121 2.0 8.0 0.00 1.24 0.67 95 1010.1
20260506135506 46 175 1.0 7.0 0.00 1.24 0.67 95 1010.2
20260506135005 46 153 2.0 7.0 0.00 1.24 0.67 96 1010.3
20260506134516 46 177 2.0 7.0 0.00 1.24 0.67 96 1010.2
20260506134005 46 144 1.0 6.0 0.00 1.24 0.67 96 1010.1
20260506133507 46 103 1.0 7.0 0.00 1.24 0.67 96 1009.9
20260506133011 46 145 1.0 7.0 0.00 1.24 0.67 96 1009.8
20260506132504 46 205 2.0 6.0 0.00 1.24 0.67 96 1009.6
20260506132006 46 171 2.0 6.0 0.00 1.24 0.67 97 1009.6
20260506131511 46 192 2.0 6.0 0.00 1.24 0.67 96 1009.4
20260506131004 46 194 2.0 6.0 0.00 1.24 0.67 97 1009.5
20260506130506 46 192 1.0 4.0 0.00 1.24 0.67 97 1009.4
20260506130018 46 113 0.0 4.0 0.00 1.24 0.67 97 1009.5
20260506125504 45 184 1.0 7.0 0.00 1.24 0.67 96 1009.4
20260506125006 45 155 0.0 7.0 0.00 1.24 0.67 96 1009.4
20260506124523 45 169 1.0 6.0 0.00 1.24 0.67 96 1009.3
20260506124006 45 207 1.0 5.0 0.00 1.24 0.67 96 1009.3
20260506123505 45 171 1.0 7.0 0.00 1.24 0.67 96 1009.4
20260506123019 45 190 1.0 7.0 0.00 1.24 0.67 97 1009.3
20260506122506 45 196 1.0 6.0 0.00 1.24 0.67 97 1009.1
20260506122008 45 161 1.0 7.0 0.00 1.24 0.67 97 1008.9
20260506121520 45 194 2.0 7.0 0.00 1.24 0.67 97 1008.6
20260506121007 45 199 3.0 6.0 0.00 1.24 0.67 97 1008.5
20260506120503 45 178 1.0 6.0 0.00 1.24 0.67 97 1008.7
20260506120022 45 165 2.0 6.0 0.00 1.24 0.67 97 1008.7
20260506115509 45 186 0.0 6.0 0.00 1.24 0.67 97 1008.7
20260506115008 45 189 0.0 6.0 0.00 1.24 0.67 97 1008.9
20260506114519 45 142 0.0 5.0 0.00 1.24 0.67 97 1008.9
20260506114004 45 187 0.0 4.0 0.00 1.24 0.67 97 1008.7
20260506113506 45 190 0.0 6.0 0.00 1.24 0.67 96 1008.5
20260506113023 45 129 0.0 6.0 0.00 1.24 0.67 97 1008.6
20260506112510 45 207 1.0 4.0 0.00 1.24 0.67 96 1008.4
20260506112007 45 226 0.0 5.0 0.00 1.24 0.67 96 1008.2
20260506111523 45 198 0.0 5.0 0.00 1.24 0.67 96 1008.5
20260506111009 45 198 1.0 4.0 0.00 1.24 0.67 96 1008.8
20260506110504 45 177 0.0 5.0 0.00 1.24 0.67 96 1008.9
20260506110023 45 171 1.0 6.0 0.01 1.24 0.67 97 1008.3
20260506105512 45 162 2.0 8.0 0.01 1.24 0.67 97 1008.2
20260506105009 44 145 1.0 8.0 0.02 1.24 0.67 97 1008.3
20260506104515 44 167 0.0 5.0 0.02 1.24 0.67 96 1007.8
20260506104010 44 182 1.0 4.0 0.03 1.24 0.67 96 1007.5
20260506103508 44 192 1.0 5.0 0.04 1.24 0.67 96 1007.1
20260506103025 44 217 2.0 5.0 0.04 1.24 0.67 96 1006.9
20260506102507 44 221 1.0 7.0 0.05 1.24 0.67 96 1007.0
20260506102010 44 203 1.0 7.0 0.06 1.24 0.67 96 1007.2
20260506101524 44 222 2.0 7.0 0.07 1.24 0.67 96 1007.0
20260506101007 44 225 1.0 5.0 0.08 1.24 0.67 96 1006.9
20260506100508 44 240 1.0 6.0 0.09 1.24 0.67 96 1007.0
20260506100027 44 218 2.0 7.0 0.09 1.23 0.66 96 1007.2
20260506095510 44 224 3.0 7.0 0.10 1.23 0.66 96 1007.4
20260506095006 44 172 2.0 8.0 0.09 1.22 0.65 96 1007.7
20260506094528 44 203 2.0 8.0 0.10 1.22 0.65 96 1007.7
20260506094005 44 157 1.0 8.0 0.09 1.21 0.64 96 1007.9